GFSSE_con_mucape_021.txt.gz
CAPE
637 666 685 707 856 728 667 679 695 750 786 673 534 480 456 393 429 569 557 514 406 179 195 189 194 220 201 202 187 178 171 194 197 296 417 691 1029 933 854 1325 1371 896 1585
786 816 526 755 936 801 778 823 852 840 781 534 467 414 375 326 356 334 431 373 127 50 26 15 2 0 0 0 0 1 6 46 94 176 237 561 741 976 757 645 1115 867 1297
997 1019 611 720 1026 951 985 1102 1070 908 649 566 431 370 286 179 119 122 231 231 84 0 0 0 0 0 0 0 0 0 0 0 0 24 86 249 237 702 788 1260 1199 1244 1154
1012 1015 649 726 1067 1078 1193 1230 1136 887 693 546 422 334 175 83 70 49 50 136 47 0 0 0 0 0 0 0 0 0 0 0 0 11 252 394 216 671 783 591 512 803 946
980 927 747 805 1064 1223 1305 1279 1154 1019 876 691 538 250 92 14 18 17 41 49 14 0 0 0 0 0 0 0 0 0 0 0 6 135 165 297 318 821 749 262 532 597 897
927 972 781 965 1128 1352 1394 1375 1202 1034 845 712 600 330 28 0 0 0 36 44 1 0 0 0 0 0 0 0 0 0 0 0 0 53 105 76 423 722 490 747 945 927 938
983 1039 1058 985 1021 1310 1507 1376 1139 943 817 769 678 484 184 0 0 0 52 49 0 0 0 0 0 0 2 13 0 0 0 0 0 0 0 11 347 467 397 425 561 895 929
933 1149 1240 953 1133 1261 1321 1150 834 840 817 792 704 552 212 98 107 6 0 5 0 0 0 0 0 0 12 13 5 0 0 0 0 0 0 0 28 325 374 250 592 540 664
970 1133 1131 1177 1086 1026 1033 867 652 740 716 669 623 539 372 190 147 120 95 12 0 115 76 39 15 40 39 30 19 0 0 0 0 0 0 0 0 9 109 40 49 193 137
993 811 807 1008 1000 1084 1034 733 587 560 541 520 516 330 126 63 78 77 0 85 103 76 78 114 165 113 44 14 0 0 0 0 0 0 0 0 0 0 0 0 0 0 0
1034 1434 1069 805 869 785 745 638 451 497 461 435 412 119 32 80 118 125 28 75 137 161 139 113 72 48 0 0 0 0 0 0 0 0 0 0 0 0 0 5 94 73 3
1214 1247 1105 782 670 360 284 448 365 294 285 345 345 361 155 169 142 88 67 31 29 0 0 0 0 0 0 0 0 0 0 0 0 0 0 0 0 0 0 5 66 105 83
1021 803 693 507 240 150 137 204 96 153 194 242 319 326 318 293 344 356 253 12 0 0 0 0 0 0 0 0 0 0 0 0 0 0 0 0 0 0 0 0 0 45 199
552 523 243 110 56 2 2 28 32 110 203 363 483 536 540 351 185 163 0 0 0 0 0 0 0 0 0 0 0 0 0 0 0 0 0 0 0 0 0 0 0 0 0
167 110 63 0 0 0 1 29 46 117 292 410 444 352 126 35 4 0 0 0 0 0 0 0 0 0 0 0 0 0 0 0 0 0 0 0 0 0 0 0 0 0 0
5 55 35 0 0 6 30 15 66 118 176 278 386 449 229 55 12 0 0 0 1 0 3 4 1 0 0 0 0 0 0 0 0 0 0 0 0 0 0 0 0 0 0
66 107 103 83 2 11 41 72 71 9 0 9 135 203 142 17 8 0 8 18 13 16 9 4 5 0 1 0 0 0 0 0 0 0 0 0 0 0 0 0 0 0 0
212 255 218 105 117 34 83 71 102 11 2 0 55 93 49 13 11 26 21 1 4 3 1 4 1 0 0 0 0 0 0 0 0 0 0 0 0 0 0 0 0 0 0
296 236 244 209 133 121 24 1 88 85 45 91 12 0 11 23 23 12 9 2 2 0 0 0 0 0 0 0 0 0 0 0 0 0 0 0 0 0 0 0 0 0 0
174 236 318 143 75 67 79 77 53 36 42 63 54 5 2 0 0 0 0 0 0 0 0 0 0 0 0 0 0 0 0 0 0 0 0 0 0 0 0 0 0 0 0
232 285 334 182 53 32 44 6 8 26 45 53 3 0 0 0 0 0 0 0 0 0 0 0 0 0 0 0 0 0 0 0 0 0 0 0 0 0 0 0 0 0 0
286 367 280 92 46 3 0 2 13 2 0 0 0 0 0 0 0 0 0 0 0 1 1 0 0 0 0 0 0 0 0 0 1 0 0 0 0 0 0 0 0 0 0
238 152 90 1 0 0 0 0 0 0 0 0 0 0 0 0 0 0 0 0 0 0 0 0 0 0 0 0 0 0 0 0 0 0 0 0 9 6 10 11 4 2 1
23 26 0 0 0 0 0 0 0 0 0 0 0 0 0 0 0 0 0 0 0 0 0 0 0 0 0 0 0 0 0 0 0 0 0 2 1 1 14 10 3 4 9
0 0 0 0 0 0 0 0 0 0 0 0 0 0 0 0 0 0 0 0 0 0 0 0 0 0 0 0 0 0 0 0 0 0 0 0 0 0 21 1 12 6 20
0 0 0 0 0 0 0 0 0 0 0 0 0 0 0 0 0 0 0 0 0 0 2 8 1 0 0 0 0 0 0 0 0 0 0 0 0 0 0 12 11 4 6

GFSSE_con_mucape_024.txt.gz
CAPE
563 429 827 838 870 767 715 714 758 788 843 589 528 456 444 400 384 389 388 402 360 157 128 73 15 6 2 0 0 4 29 52 81 165 446 843 948 991 757 591 1056 614 1159
678 404 616 859 868 818 816 886 899 889 776 510 466 394 339 316 340 348 372 281 45 1 0 0 0 0 0 0 0 0 0 10 33 108 218 749 787 856 881 894 1395 923 1256
757 453 440 829 849 906 985 1042 1063 717 560 438 393 278 158 142 124 92 216 158 5 0 0 0 0 0 0 0 0 0 11 52 47 63 256 244 569 888 708 467 772 927 921
882 690 540 758 943 1122 1243 1216 1138 747 547 426 313 150 125 109 37 12 14 42 1 0 0 0 0 0 0 0 0 1 0 28 104 156 304 339 426 685 470 496 360 625 810
1066 878 789 783 902 1096 1221 1269 1170 983 729 632 413 92 62 26 2 0 13 40 6 0 0 0 0 0 0 0 0 0 0 0 22 70 139 202 261 468 670 568 712 612 646
1133 1021 583 764 955 1114 1350 1248 1252 968 766 679 490 232 0 0 0 0 81 178 7 0 0 0 0 0 0 0 0 0 0 0 2 0 5 102 285 475 393 133 293 403 855
890 1013 955 795 687 984 1224 1330 1131 928 817 760 567 350 146 0 0 0 61 175 4 0 0 0 0 0 0 0 0 0 0 0 0 0 0 0 29 317 319 148 36 25 360
1188 1106 1058 655 652 847 1435 1134 905 835 862 800 631 451 85 48 63 0 0 0 0 0 0 0 0 34 39 0 0 0 0 0 0 0 0 0 4 14 20 0 165 165 0
1186 1243 1035 828 742 997 936 707 712 748 764 693 629 494 296 244 241 112 24 0 5 36 50 72 76 73 29 13 0 0 0 0 0 0 0 0 0 0 0 0 0 4 0
1218 1242 1098 1118 1086 1042 1068 605 626 587 550 564 516 265 140 132 122 31 123 122 114 69 130 157 94 34 0 0 0 0 0 0 0 0 0 0 0 0 0 0 0 0 0
1129 1059 1037 1047 1022 988 814 745 481 542 482 452 328 150 84 300 322 189 49 105 106 22 31 34 10 0 0 0 0 0 0 0 0 0 0 0 0 0 0 0 126 29 0
1024 928 900 1196 943 934 462 409 193 104 245 525 542 541 518 663 576 239 140 19 0 0 0 0 0 0 0 0 0 0 0 0 0 0 0 0 0 0 0 0 0 24 229
1038 1217 1104 1026 842 396 246 90 27 145 540 738 857 901 954 901 987 751 205 21 32 0 2 0 0 0 0 0 0 0 0 0 0 0 0 0 0 0 0 0 1 0 33
1173 762 683 590 429 262 35 1 171 528 736 801 1042 1161 1132 1085 974 707 48 42 65 14 13 0 0 0 0 0 0 0 0 0 0 0 0 0 0 0 0 0 0 0 0
518 438 336 257 210 175 186 384 637 736 815 918 1064 950 851 589 490 181 121 16 3 5 3 0 0 0 0 0 0 0 0 0 0 0 0 0 0 0 0 0 0 0 0
199 367 309 166 128 247 429 608 671 467 192 216 373 176 178 188 318 186 24 2 3 3 10 5 0 0 0 0 0 0 0 0 0 0 0 0 0 0 0 0 0 0 0
162 425 485 332 259 420 488 358 118 42 44 38 79 39 60 78 58 10 10 15 4 3 0 0 0 0 0 0 0 0 0 0 0 0 0 0 0 0 0 0 0 0 0
348 651 635 344 233 508 406 107 39 19 22 28 64 76 46 6 6 19 8 2 0 0 0 0 0 0 0 0 0 0 0 0 0 0 0 0 0 0 0 0 0 0 0
707 799 700 635 360 40 56 62 41 6 43 54 86 83 64 5 0 0 0 0 0 0 0 0 0 0 0 0 0 0 0 0 0 0 0 4 0 0 0 0 0 0 0
867 789 672 495 157 26 8 38 14 22 25 17 42 31 5 0 0 0 0 0 0 0 0 0 0 0 0 0 0 0 0 0 0 1 12 5 2 8 4 3 1 0 0
752 632 646 306 536 228 164 45 8 0 3 0 0 0 0 0 0 0 0 0 0 0 0 0 0 0 0 1 0 0 0 0 13 20 16 8 11 8 9 7 6 10 3
564 601 634 727 757 439 78 4 3 14 4 0 0 0 0 0 0 0 0 0 0 0 0 0 0 0 0 5 2 0 0 0 0 19 4 12 7 17 7 8 14 17 16
645 924 866 725 456 0 0 0 5 3 0 0 0 0 0 0 0 0 0 0 0 0 0 1 2 0 0 0 1 0 0 0 0 1 10 13 22 7 7 5 15 13 21
768 684 75 2 0 0 0 0 0 0 2 0 0 0 0 0 0 0 0 0 0 0 2 6 0 0 0 0 0 2 3 7 0 0 23 31 28 5 0 2 21 9 18
178 9 0 0 0 0 0 0 0 0 0 0 0 0 0 0 0 0 0 0 7 20 11 0 0 3 0 1 4 4 13 15 20 36 16 27 15 21 31 19 14 14 12
0 0 0 0 0 0 0 0 0 0 0 0 0 0 0 0 3 12 23 29 26 14 2 2 15 1 16 9 11 22 33 35 38 36 41 34 25 5 22 25 31 34 27

GFSSE_con_mucape_030.txt.gz
CAPE
132 136 577 754 742 675 588 618 645 649 637 605 510 442 408 417 384 307 214 129 63 0 0 0 0 0 0 0 0 8 28 46 105 679 717 675 542 458 285 547 812 551 1152
97 110 468 610 701 670 745 779 736 670 568 324 337 408 368 323 304 233 155 58 2 0 0 0 0 0 0 0 1 27 90 198 257 343 661 640 509 596 367 765 880 689 1071
64 118 257 568 721 803 965 924 817 615 351 202 270 333 284 242 155 176 109 16 2 0 0 0 0 0 0 0 0 0 0 114 251 394 352 197 91 231 422 847 789 879 1207
82 88 231 656 820 956 1005 866 648 485 251 319 268 202 210 83 0 0 176 50 38 0 0 0 0 0 0 0 0 0 0 19 35 79 58 70 10 99 0 21 190 444 718
78 132 427 609 712 777 974 815 629 507 377 297 232 104 0 0 26 32 161 95 69 0 0 0 0 0 0 0 0 0 0 15 47 34 0 36 32 128 21 0 0 108 664
126 338 471 374 429 772 956 842 715 504 363 257 199 154 5 45 80 123 257 221 19 0 0 0 0 0 54 14 9 9 0 0 18 2 0 2 0 56 0 0 46 0 276
300 288 344 238 387 847 965 843 687 541 398 287 216 177 169 81 117 164 297 218 60 19 20 5 1 0 76 68 33 18 0 5 0 0 0 0 45 47 0 0 0 10 16
272 190 251 346 561 784 848 744 646 539 417 303 219 222 175 192 252 254 246 240 227 122 54 50 21 15 6 13 6 0 0 33 0 4 0 0 85 58 0 0 134 114 104
189 140 165 359 581 548 533 532 527 507 450 353 313 273 275 265 236 277 320 279 217 186 182 76 47 0 0 0 0 0 0 31 0 1 2 0 75 66 67 4 87 191 135
5 125 254 334 517 398 352 389 395 412 339 218 187 162 126 118 176 248 248 244 114 87 73 45 2 0 0 0 0 0 0 0 0 0 0 0 89 23 60 90 64 56 448
62 118 129 330 558 353 309 383 441 459 260 128 92 105 60 71 31 183 85 82 2 0 5 0 0 0 46 8 10 72 8 0 0 0 0 0 0 0 0 25 79 137 158
86 211 343 558 648 361 67 136 122 90 7 10 16 240 315 566 176 154 77 57 0 0 0 6 0 0 27 0 0 0 0 0 0 0 0 0 0 0 0 0 2 13 27
245 404 521 392 447 227 115 60 36 205 405 471 627 768 658 866 667 303 241 24 32 2 76 5 49 14 1 0 0 0 0 0 0 0 0 0 0 0 0 0 0 0 0
627 574 609 497 506 171 124 12 23 498 523 921 814 826 812 687 669 527 119 166 85 28 61 66 62 41 6 0 0 0 0 0 0 0 0 0 0 0 0 0 0 0 0
481 578 346 357 292 182 328 534 617 796 877 978 809 590 698 511 509 459 146 26 10 6 22 34 1 0 0 0 0 0 0 0 0 0 0 0 0 0 0 0 0 0 0
269 309 262 194 240 322 715 685 509 418 423 379 237 413 563 359 277 97 61 0 2 1 8 2 0 0 0 0 0 0 0 0 0 0 0 0 0 1 0 0 0 0 0
201 180 180 111 295 567 500 306 186 48 57 70 143 206 141 54 9 5 2 4 2 0 0 0 0 0 0 0 0 0 0 0 0 0 0 0 0 4 4 4 0 0 0
195 254 192 245 549 367 134 33 6 3 38 19 11 0 2 7 0 0 2 0 0 0 0 0 0 0 0 0 0 0 0 0 0 0 0 0 0 0 4 0 0 0 0
313 417 566 691 415 205 77 69 63 89 0 0 0 0 4 3 2 0 0 0 0 0 0 0 0 0 0 0 0 0 0 0 0 0 0 0 9 14 15 29 45 44 4
628 573 541 746 447 256 105 83 61 2 0 0 0 3 0 0 0 0 0 0 0 0 0 0 0 0 0 0 0 0 0 0 0 0 0 2 0 9 17 9 0 2 9
1030 704 598 536 314 203 143 131 35 0 0 0 0 0 0 0 0 0 0 0 0 0 0 0 0 0 0 0 0 0 0 0 0 0 0 0 0 5 5 1 0 0 0
993 669 487 547 303 366 416 186 69 4 0 0 0 0 0 0 0 0 0 0 0 0 0 0 0 0 0 0 0 0 0 0 0 0 0 0 0 0 0 0 0 0 0
1043 863 548 487 449 508 484 209 58 9 0 0 0 0 0 0 0 0 0 0 0 0 0 0 0 0 0 0 0 0 0 0 0 0 0 0 0 0 0 0 0 7 3
886 839 760 722 712 637 350 30 10 0 0 1 1 0 0 0 0 0 0 0 0 0 0 0 0 0 0 0 0 0 0 0 0 0 0 0 0 0 0 0 3 4 0
793 875 1027 924 657 71 8 17 8 6 3 1 0 0 2 0 0 0 0 0 0 0 0 0 1 0 1 0 0 0 2 0 0 0 0 0 0 0 0 0 0 0 0
845 966 727 558 14 0 0 2 2 0 0 0 2 11 12 3 0 0 0 0 0 0 0 0 2 18 2 0 0 4 3 0 0 0 0 0 0 0 0 0 0 0 0

GFSSE_con_mucape_033.txt.gz
CAPE
425 739 852 982 858 716 657 645 604 567 487 399 359 329 272 200 137 78 18 7 29 0 0 0 0 0 0 0 0 48 111 122 482 563 520 527 470 325 261 351 680 477 832
450 681 710 879 833 791 812 734 580 434 344 260 323 282 229 163 73 38 40 88 50 0 0 0 0 0 0 0 0 0 0 147 335 351 478 108 110 157 195 744 758 864 1166
406 525 649 670 839 933 978 822 567 365 317 267 174 228 130 95 74 44 99 38 3 0 0 0 0 0 0 0 0 1 26 21 4 8 291 0 0 0 0 77 632 553 538
275 354 526 736 882 996 860 655 390 313 274 298 210 142 107 38 48 155 90 20 0 0 0 0 0 0 0 0 0 19 40 35 39 35 22 0 0 25 0 0 0 337 474
91 365 620 621 671 814 598 534 411 374 279 211 144 90 62 26 19 64 179 93 73 0 0 0 0 0 0 13 0 3 46 55 76 3 0 0 0 0 0 0 0 0 133
265 405 291 327 417 521 770 518 384 318 203 153 143 223 107 76 78 103 239 191 32 3 0 0 0 0 17 12 32 26 47 65 0 0 0 31 0 29 0 0 0 0 0
281 210 139 187 330 740 679 510 387 306 212 196 243 260 270 127 94 146 271 205 71 13 1 0 0 4 13 21 16 20 21 61 0 0 0 0 27 44 26 0 6 13 13
55 59 167 298 558 560 607 437 306 249 196 221 264 283 285 265 280 265 276 302 212 135 61 0 0 9 0 0 0 0 0 0 0 0 0 1 136 77 52 31 200 248 187
84 71 156 237 400 372 379 296 233 175 193 221 271 269 245 208 244 286 312 317 270 226 117 4 0 0 0 0 17 0 0 2 0 0 0 2 188 72 64 87 77 93 314
87 133 149 295 262 248 235 226 177 131 144 133 126 101 81 109 182 233 200 134 54 20 11 0 0 0 0 0 0 10 0 0 0 0 0 0 60 0 0 35 99 164 177
11 35 132 228 232 153 98 163 136 103 71 64 64 34 29 16 5 40 5 22 0 0 0 0 0 0 0 0 0 6 0 0 0 0 0 2 0 0 0 0 0 1 5
4 0 75 148 174 68 42 32 20 13 1 0 102 112 166 85 40 0 0 12 0 0 0 0 0 1 0 0 0 0 0 0 0 0 0 0 0 0 0 0 0 0 0
12 3 19 115 160 1 5 2 0 1 0 35 177 281 278 185 22 130 35 2 0 1 19 0 0 0 0 0 0 0 0 0 0 0 0 0 0 0 0 0 0 0 0
57 91 80 312 94 5 9 8 148 197 188 300 470 453 294 272 51 0 8 23 0 9 22 4 3 0 0 0 0 0 0 0 0 0 0 0 0 0 0 0 0 0 0
100 158 235 331 29 24 12 105 200 363 351 456 439 386 244 182 44 38 9 6 21 11 3 0 6 2 0 0 0 0 0 0 0 0 0 0 0 0 0 0 0 0 0
303 321 162 163 21 87 304 310 337 293 315 388 136 192 56 46 0 7 55 24 6 0 4 0 0 0 0 0 0 0 0 0 0 0 0 0 0 0 0 0 0 0 0
364 149 79 31 304 302 248 240 193 218 262 177 11 22 16 25 0 1 7 0 0 0 0 0 0 0 0 0 0 0 0 0 0 0 0 0 0 5 10 0 0 0 0
191 156 22 198 313 225 191 161 99 0 0 0 0 0 0 0 0 0 0 0 0 0 0 0 0 0 0 0 0 0 0 0 0 0 0 0 0 0 17 1 0 0 1
189 2 28 352 261 206 180 8 0 0 0 0 0 0 0 0 0 0 0 0 0 0 0 0 0 0 0 0 0 0 0 0 0 0 0 0 0 0 0 40 13 12 10
188 153 355 364 316 187 42 12 9 0 0 0 0 0 0 0 0 0 0 0 0 0 0 0 0 0 0 0 0 0 0 0 0 0 0 0 0 0 0 1 5 10 11
301 380 456 425 299 124 13 20 14 0 16 0 0 0 0 0 0 0 0 0 0 0 0 0 0 0 0 0 0 0 0 0 0 0 0 0 0 0 0 1 3 7 4
394 438 456 446 386 207 37 69 39 33 22 0 0 0 0 0 0 0 0 0 0 0 0 0 0 0 0 0 0 0 0 0 0 0 0 0 0 0 0 0 2 0 0
567 631 508 482 306 204 137 175 83 11 0 0 0 0 0 0 0 0 0 0 0 0 0 0 0 0 0 0 0 0 0 0 0 0 0 0 0 0 0 0 0 0 0
734 677 721 487 250 136 246 238 10 0 0 0 0 0 0 0 0 0 0 0 0 0 0 0 0 0 0 0 0 0 0 0 0 0 0 0 0 0 0 0 0 0 0
926 785 556 357 303 237 288 68 5 0 0 0 0 0 0 0 0 3 0 0 0 0 0 0 0 0 0 0 0 0 0 0 0 0 0 0 0 0 0 0 0 0 0
888 728 552 469 495 449 232 31 8 2 0 0 0 0 0 10 7 3 0 0 0 0 0 0 0 0 0 0 4 0 0 0 0 0 0 0 0 0 0 0 0 0 0

GFSSE_con_mucape_036.txt.gz
CAPE
825 826 850 828 773 732 769 700 498 380 329 228 169 163 137 84 28 31 54 46 19 0 0 0 0 0 0 0 0 54 207 339 463 376 332 56 34 130 208 368 618 311 499
816 793 709 748 771 844 844 669 411 330 236 110 112 154 110 70 109 137 87 45 15 0 0 0 0 0 0 0 0 0 0 147 393 234 18 0 0 0 0 136 581 292 466
831 677 618 635 820 875 780 620 417 306 83 82 50 97 97 98 121 66 46 23 2 0 0 0 0 0 0 0 0 17 5 2 34 304 28 0 0 0 0 0 43 280 390
733 583 514 665 801 842 642 474 307 166 75 126 94 64 77 116 67 85 77 42 37 0 0 0 0 0 0 0 0 264 306 290 207 26 0 0 0 0 0 0 0 0 170
583 430 611 670 738 732 507 404 312 278 188 165 184 100 69 78 54 71 168 121 91 5 0 0 0 0 0 26 12 34 0 0 0 0 0 0 0 0 0 0 0 0 0
476 421 503 537 589 631 568 457 311 212 160 210 251 247 163 51 63 108 209 184 89 12 0 0 0 0 0 25 1 0 0 0 0 0 0 0 0 25 0 0 0 0 0
355 222 237 310 472 522 490 399 290 256 243 286 293 294 242 132 87 150 272 234 138 7 0 0 0 0 0 0 0 26 0 0 0 0 0 0 3 38 0 8 32 46 9
188 158 160 281 301 339 405 332 278 259 306 332 327 288 250 222 238 274 309 291 194 133 25 0 0 0 0 0 6 0 0 0 0 0 0 0 178 0 0 59 29 101 121
143 92 83 76 157 325 315 270 200 225 265 298 268 227 206 207 245 275 298 293 220 107 10 0 0 0 0 0 0 0 0 0 0 0 0 0 72 0 0 0 15 55 58
68 64 7 132 94 152 175 190 166 172 182 183 176 147 129 148 189 201 167 167 113 22 0 0 0 0 0 0 0 0 0 0 0 0 0 0 0 0 0 0 0 3 4
60 42 1 84 135 150 126 136 152 166 141 111 103 66 20 6 9 16 0 14 0 0 0 0 0 0 0 8 0 0 0 0 0 0 0 0 0 0 0 0 0 0 0
11 78 12 38 68 116 70 27 9 10 3 0 11 12 20 15 0 0 0 0 0 0 0 0 0 0 0 0 0 0 0 0 0 0 0 0 0 0 0 0 0 0 0
10 2 20 121 70 29 9 0 0 0 37 76 66 106 53 11 7 0 0 0 0 0 0 0 0 0 0 0 0 0 0 0 0 0 0 0 0 0 0 2 9 0 0
1 3 31 76 62 9 2 1 0 0 1 99 250 269 217 64 37 52 5 0 0 0 0 0 0 0 0 0 0 0 0 0 0 0 0 0 0 0 0 12 6 0 0
5 42 55 87 107 3 0 0 6 8 67 345 347 150 215 58 0 0 0 0 0 0 0 0 0 0 0 0 0 0 0 0 0 0 0 0 0 0 2 23 0 0 0
13 28 97 176 186 8 30 124 138 259 363 351 341 138 91 83 26 11 0 0 0 0 0 0 0 0 0 0 0 0 0 0 0 0 0 0 0 0 10 3 0 0 0
72 74 183 325 50 96 136 132 303 327 357 144 2 7 0 1 0 0 0 0 0 0 0 0 0 0 0 0 0 0 0 0 0 0 0 0 0 5 18 0 0 0 0
290 353 350 272 102 181 196 240 313 288 301 41 0 0 0 0 0 0 0 0 0 0 0 0 0 0 0 0 0 0 0 0 0 0 0 0 0 0 12 0 0 0 0
495 426 219 182 207 260 271 267 297 162 111 0 0 0 0 0 0 0 0 0 0 0 0 0 0 0 0 0 0 0 0 0 0 0 0 0 0 0 0 0 0 0 0
447 167 177 270 237 247 229 175 162 54 0 0 0 0 0 0 0 0 0 0 0 0 0 0 0 0 0 0 0 0 0 0 0 0 0 0 0 0 0 0 0 0 0
318 151 181 245 231 187 138 123 19 5 0 0 0 0 0 0 0 0 0 0 0 0 0 0 0 0 0 0 0 0 0 0 0 0 0 0 0 0 0 0 0 0 0
295 245 181 228 245 198 94 19 20 14 0 0 0 0 0 0 0 0 0 0 0 0 0 0 0 0 0 0 0 0 0 0 0 0 0 0 0 0 0 0 0 0 0
268 292 334 274 292 279 150 48 24 30 15 9 2 0 0 0 0 0 0 0 0 0 1 0 0 0 0 0 0 0 0 0 0 0 0 0 0 0 0 0 0 0 0
261 311 474 420 386 304 199 123 55 50 21 49 3 0 0 0 0 0 0 0 0 0 0 0 0 0 0 0 0 0 0 0 0 0 0 0 0 0 0 0 0 0 0
250 391 520 551 515 346 285 165 127 126 30 0 0 0 0 0 0 0 0 6 12 1 1 0 0 0 0 0 0 0 0 0 0 0 0 0 0 0 0 0 0 0 0
495 535 550 566 417 305 195 187 237 196 19 0 0 0 0 0 0 2 10 19 2 6 0 0 0 0 0 0 0 0 0 0 0 0 0 0 0 0 0 0 0 0 0